This is the latest recevied weather packets stored in our database for station/object WA7SB-7. If no packets are shown the sender has not sent any weather packets the latest 10 day(s).
| Time | Temp. | Humidity | Pressure | Rain* | Wind** | Luminosity | Snow |
|---|---|---|---|---|---|---|---|
| 1788118167 | 19.44° C | 67% | 1020.2 hPa | 0 mm | - | - | - |
| 1788117933 | 19.44° C | 68% | 1020.2 hPa | 0 mm | - | - | - |
| 1788117854 | 19.44° C | 68% | 1020.2 hPa | 0 mm | - | - | - |
| 1788117618 | 18.89° C | 69% | 1020.1 hPa | 0 mm | - | - | - |
| 1788117558 | 18.89° C | 67% | 1020.1 hPa | 0 mm | - | - | - |
| 1788117322 | 19.44° C | 64% | 1020.2 hPa | 0 mm | - | - | - |
| 1788117264 | 19.44° C | 64% | 1020.2 hPa | 0 mm | - | - | - |
| 1788117026 | 20° C | 64% | 1020.2 hPa | 0 mm | - | - | - |
| 1788116952 | 20° C | 65% | 1020.1 hPa | 0 mm | - | - | - |
| 1788116715 | 20° C | 66% | 1020.3 hPa | 0 mm | - | - | - |
| 1788116658 | 19.44° C | 64% | 1020.3 hPa | 0 mm | - | - | - |
| 1788116426 | 20° C | 64% | 1020.5 hPa | 0 mm | - | - | - |
| 1788116366 | 20° C | 64% | 1020.5 hPa | 0 mm | - | - | - |
| 1788116130 | 20.56° C | 61% | 1020.5 hPa | 0 mm | - | - | - |
| 1788116070 | 20.56° C | 63% | 1020.5 hPa | 0 mm | - | - | - |
| 1788115831 | 21.11° C | 61% | 1020.5 hPa | 0 mm | - | - | - |
| 1788115770 | 21.11° C | 61% | 1020.6 hPa | 0 mm | - | - | - |
| 1788115532 | 21.67° C | 60% | 1020.5 hPa | 0 mm | - | - | - |
| 1788115453 | 21.67° C | 61% | 1020.5 hPa | 0 mm | - | - | - |
| 1788115218 | 21.11° C | 58% | 1020.6 hPa | 0 mm | - | - | - |
| 1788115160 | 21.11° C | 58% | 1020.6 hPa | 0 mm | - | - | - |
| 1788114926 | 21.11° C | 58% | 1020.5 hPa | 0 mm | - | - | - |
| 1788114867 | 21.11° C | 58% | 1020.5 hPa | 0 mm | - | - | - |
| 1788114631 | 21.11° C | 59% | 1020.5 hPa | 0 mm | - | - | - |
| 1788114552 | 20.56° C | 63% | 1020.5 hPa | 0 mm | - | - | - |
* Rain latest hour (hover to see other rain measurements)
** Current wind speed in m/s (hover to see current wind gust speed)